Regional Weather Roundup
Issued by NWS Midland/Odessa, TX

Home | Current Version | Previous Version | Text Only | Print | Product List | Glossary On
Versions: 1 2 3 4 5 6 7 8 9 10 11 12 13 14 15 16 17 18 19 20 21 22 23 24 25 26 27 28 29 30 31 32 33 34 35 36 37 38 39 40 41 42 43 44 45 46 47 48 49 50
000
ASUS44 KMAF 041201
RWRMAF
MIDLAND AREA WEATHER ROUNDUP
NATIONAL WEATHER SERVICE MIDLAND TX
700 AM CDT TUE AUG 04 2015

...IN SOUTHWEST TEXAS AND SOUTHEAST NEW MEXICO...

CITY           SKY/WX    TMP DP  RH WIND       PRES   REMARKS
ALPINE         PTCLDY    69  56  64 CALM      30.16R
ANDREWS        FAIR      69  69 100 SW8       30.04R
ARTESIA        CLEAR     66  66 100 SW7       30.04R
BIG SPRING     CLOUDY    70  67  89 W3        30.03R
CARLSBAD       CLEAR     67  65  93 S7        30.02R
DRYDEN           N/A     78  66  66 VRB7      29.96R
FORT STOCKTON  PTCLDY    72  61  68 SE3       30.01S
GUAD PASS      CLEAR     64  59  83 SW14      30.19R
HOBBS          CLEAR     68  64  88 SW5       30.06
MARFA          PTCLDY    61  57  88 N7        30.14
MIDLAND AIRPK  PTCLDY    73  68  86 SW3       30.02R
MIDLAND INTL   PTCLDY    71  67  87 SW5       30.02R
ODESSA         PTCLDY    70  67  90 SW3       30.03R
PECOS          MOCLDY    73  66  78 N3        29.99R
PRESIDIO       FAIR      75  65  71 MISG      29.99R
SEMINOLE       PTCLDY    68  66  93 W6        30.05R
SNYDER         MOCLDY    72  65  79 CALM      30.01R
WINK           CLEAR     70  68  93 NE5       30.00R
$$
...OTHER STATIONS IN TEXAS...

CITY           SKY/WX    TMP DP  RH WIND       PRES   REMARKS
ABILENE        PTCLDY    76  59  55 S5        29.96R
AMARILLO       MOCLDY    66  64  93 S10       30.03F
AUSTIN         PTCLDY    73  73 100 S3        29.95R
BROWNSVILLE    CLEAR     78  76  93 SE6       29.93R
CORPUS CHRISTI PTCLDY    78  76  93 S6        29.92R
DALLAS FTW     MOCLDY    80  65  59 S7        29.93R
DEL RIO        CLEAR     78  71  79 E8        29.92R
EL PASO        PTCLDY    73  60  63 S8        30.08R
HOUSTON INT    PTCLDY    75  74  96 CALM      29.96R
LUBBOCK        MOCLDY    67  63  87 NE12      30.06R
SAN ANGELO     PTCLDY    77  63  61 S7        29.97R
SAN ANTONIO    MOCLDY    80  73  79 S8        29.96R
WACO           CLEAR     77  70  79 S7        29.95R
WICHITA FALLS  NOT AVBL
$$
...OTHER LOCATIONS IN NEW MEXICO...

CITY           SKY/WX    TMP DP  RH WIND       PRES   REMARKS
ALAMAGORDO     CLEAR     66  55  68 CALM      30.10R
ALBUQUERQUE    PTCLDY    65  53  65 NW5       30.17R
CANNON AFB     CLEAR     62  61  97 NE5       30.09R
CLOVIS         CLEAR     61  59  94 N3        30.10R
HOLLOMAN AFB   NOT AVBL
ROSWELL        PTCLDY    64  61  90 CALM      30.04R
RUIDOSO          N/A    N/A N/A N/A MISG        N/A
SANTA FE       CLEAR     60  48  64 N10       30.22R
TRUTH OR CONSE CLEAR     68  60  75 CALM      30.14R
TUCUMCARI      CLEAR     64  61  90 N5        30.07R
$$


USA.gov is the U.S. government's official web portal to all federal, state and local government web resources and services.